| time (UTC) | temp F | wind direction | speed knots | gust knots | rain 1hr in | rain 24hr in | rain mn in | humidity % | barometer mb |
| 20260506102533 | 52 | 322 | 0.0 | 8.7 | 0.00 | 0.00 | 0.00 | 90 | 1010.5 |
| 20260506101544 | 52 | 106 | 0.0 | 6.1 | 0.00 | 0.00 | 0.00 | 90 | 1010.4 |
| 20260506100551 | 52 | 88 | 0.0 | 5.2 | 0.00 | 0.00 | 0.00 | 90 | 1010.3 |
| 20260506095552 | 52 | 124 | 5.2 | 14.8 | 0.00 | 0.00 | 0.00 | 91 | 1010.2 |
| 20260506090028 | 52 | 91 | 4.3 | 10.4 | 0.00 | 0.00 | 0.00 | 91 | 1010.1 |
| 20260506085524 | 52 | 88 | 3.5 | 8.7 | 0.00 | 0.00 | 0.00 | 91 | 1010.0 |
| 20260506085021 | 53 | 136 | 4.3 | 14.8 | 0.00 | 0.00 | 0.00 | 91 | 1010.0 |
| 20260506084517 | 53 | 121 | 6.1 | 14.8 | 0.00 | 0.00 | 0.00 | 90 | 1010.0 |
| 20260506083557 | 53 | 157 | 7.0 | 16.5 | 0.00 | 0.00 | 0.00 | 91 | 1010.0 |
| 20260506083039 | 53 | 165 | 5.2 | 14.8 | 0.00 | 0.00 | 0.00 | 90 | 1010.1 |
| 20260506082232 | 52 | 143 | 6.1 | 16.5 | 0.00 | 0.00 | 0.00 | 91 | 1010.2 |
| 20260506081543 | 52 | 151 | 7.0 | 13.0 | 0.00 | 0.00 | 0.00 | 91 | 1010.2 |
| 20260506081032 | 52 | 107 | 5.2 | 13.0 | 0.00 | 0.00 | 0.00 | 91 | 1010.1 |
| 20260506080132 | 52 | 77 | 6.1 | 14.8 | 0.00 | 0.00 | 0.00 | 91 | 1010.0 |
| 20260506073525 | 53 | 139 | 5.2 | 13.0 | 0.00 | 0.00 | 0.00 | 91 | 1009.6 |
| 20260506072642 | 53 | 148 | 3.5 | 11.3 | 0.00 | 0.00 | 0.00 | 90 | 1009.6 |
| 20260506071513 | 53 | 154 | 3.5 | 9.6 | 0.00 | 0.00 | 0.00 | 91 | 1009.6 |
| 20260506070551 | 53 | 137 | 4.3 | 8.7 | 0.00 | 0.00 | 0.00 | 91 | 1009.5 |
| 20260506061933 | 57 | 115 | 4.3 | 11.3 | 0.00 | 0.00 | 0.00 | 82 | 1008.3 |
| 20260506061329 | 61 | 111 | 4.3 | 11.3 | 0.00 | 0.00 | 0.00 | 76 | 1008.8 |
| 20260506060705 | 62 | 48 | 6.1 | 12.2 | 0.00 | 0.00 | 0.00 | 77 | 1009.2 |
| 20260506043351 | 60 | 56 | 4.3 | 9.6 | 0.00 | 0.00 | 0.00 | 84 | 1009.3 |
| 20260506041606 | 55 | 141 | 4.3 | 9.6 | 0.00 | 0.00 | 0.00 | 89 | 1009.7 |
| 20260506032822 | 54 | 142 | 4.3 | 8.7 | 0.00 | 0.00 | 0.00 | 91 | 1008.9 |
| 20260505124602 | 53 | 110 | 0.0 | 5.2 | 0.00 | 0.00 | 0.00 | 90 | 1007.3 |
| 20260505123601 | 53 | 89 | 0.0 | 0.9 | 0.00 | 0.00 | 0.00 | 89 | 1007.2 |
| 20260505122917 | 54 | 143 | 0.0 | 2.6 | 0.00 | 0.00 | 0.00 | 89 | 1007.0 |
| 20260505122237 | 54 | 94 | 0.0 | 2.6 | 0.00 | 0.00 | 0.00 | 88 | 1007.0 |
| 20260505121045 | 54 | 94 | 0.0 | 6.1 | 0.00 | 0.00 | 0.00 | 87 | 1006.7 |
| 20260505115604 | 54 | 91 | 0.0 | 1.7 | 0.00 | 0.00 | 0.00 | 87 | 1006.9 |
| 20260505114559 | 55 | 291 | 0.0 | 1.7 | 0.00 | 0.00 | 0.00 | 86 | 1006.6 |
| 20260505114049 | 55 | 87 | 0.0 | 1.7 | 0.00 | 0.00 | 0.00 | 85 | 1006.6 |
| 20260505113542 | 55 | 101 | 0.0 | 1.7 | 0.00 | 0.00 | 0.00 | 85 | 1006.6 |
| 20260505112552 | 55 | 120 | 0.0 | 0.9 | 0.00 | 0.00 | 0.00 | 84 | 1006.4 |
| 20260505111554 | 55 | 88 | 0.0 | 1.7 | 0.00 | 0.00 | 0.00 | 84 | 1006.3 |
| 20260505111040 | 55 | 96 | 0.0 | 1.7 | 0.00 | 0.00 | 0.00 | 84 | 1006.4 |
| 20260505110539 | 55 | 145 | 0.0 | 3.5 | 0.00 | 0.00 | 0.00 | 84 | 1006.4 |